Weather History for KBWD - November, 2012

Change the Weather History Date:

Thursday, November 29, 2012

  Actual Average (KABI) Record (KABI)
Temperature  
Mean Temperature 50 °F 49 °F  
Max Temperature 69 °F 61 °F 83 °F (1927)
Min Temperature 32 °F 37 °F 14 °F (1911)
Degree Days  
Heating Degree Days 14 16  
Month to date heating degree days 313  
Since 1 July heating degree days 417  
Cooling Degree Days 0 0  
Month to date cooling degree days 15  
Year to date cooling degree days 2404  
Moisture  
Dew Point 44 °F    
Average Humidity 72    
Maximum Humidity 100    
Minimum Humidity 49    
Precipitation  
Precipitation 0.00 in 0.04 in 0.74 in (1930)
Month to date precipitation 1.38  
Year to date precipitation 23.56  
Sea Level Pressure  
Sea Level Pressure 30.17 in    
Wind  
Wind Speed 5 mph (South)    
Max Wind Speed 16 mph    
Max Gust Speed 22 mph    
Visibility 10 miles    
Events      
T = Trace of Precipitation, MM = Missing Value Source: NWS Daily Summary

Daily Weather History Graph

Daily Weather History Graph

Search for Another Location

Airport or City:

Trip Planner

Search our weather history database for the weather conditions in past years. The results will help you decide how hot, cold, wet, or windy it might be!

Date:

Astronomy

Nov. 29, 2012 Rise Set
Actual Time 7:16 AM CST 5:31 PM CST
Civil Twilight 6:50 AM CST 5:58 PM CST
Nautical Twilight 6:20 AM CST 6:28 PM CST
Astronomical Twilight 5:50 AM CST 6:57 PM CST
Moon 6:36 PM CST (11/29) 8:04 AM CST (11/29)
Length of Visible Light 11h 08m
Length of Day
10h 14m
Full, 99% of the Moon is Illuminated
Nov 29
Full
Dec 6
Last Quarter
Dec 13
New
Dec 19
First Quarter
Dec 28
Full

Hourly Weather History & Observations

Time (CST) Temp. Windchill Dew Point Humidity Pressure Visibility Wind Dir Wind Speed Gust Speed Precip Events Conditions
12:15 AM 48.2 °F - 39.2 °F 71% 30.26 in 10.0 mi Calm Calm - N/A   Clear
12:35 AM 48.2 °F - 39.2 °F 71% 30.26 in 10.0 mi South 3.5 mph - N/A   Clear
12:55 AM 46.4 °F 42.9 °F 39.2 °F 76% 30.26 in 10.0 mi SE 6.9 mph - N/A   Clear
1:15 AM 44.6 °F 43.1 °F 39.2 °F 81% 30.25 in 10.0 mi SSE 3.5 mph - N/A   Clear
1:35 AM 44.6 °F 42.2 °F 39.2 °F 81% 30.24 in 10.0 mi SSE 4.6 mph - N/A   Clear
1:55 AM 44.6 °F 43.1 °F 37.4 °F 76% 30.24 in 10.0 mi SE 3.5 mph - N/A   Clear
2:15 AM 44.6 °F - 39.2 °F 81% 30.23 in 10.0 mi Calm Calm - N/A   Clear
2:35 AM 44.6 °F - 39.2 °F 81% 30.23 in 10.0 mi North - - N/A   Clear
2:55 AM 41.0 °F - 37.4 °F 87% 30.22 in 10.0 mi North - - N/A   Clear
3:15 AM 41.0 °F - 37.4 °F 87% 30.22 in 10.0 mi Calm Calm - N/A   Clear
3:35 AM 39.2 °F - 35.6 °F 87% 30.22 in 10.0 mi Calm Calm - N/A   Clear
3:55 AM 37.4 °F - 35.6 °F 93% 30.21 in 7.0 mi Calm Calm - N/A   Clear
4:15 AM 41.0 °F - 37.4 °F 87% 30.21 in 10.0 mi Calm Calm - N/A   Clear
4:35 AM 39.2 °F - 37.4 °F 93% 30.21 in 10.0 mi Calm Calm - N/A   Clear
4:55 AM 33.8 °F - 32.0 °F 93% 30.21 in 10.0 mi Calm Calm - N/A   Clear
5:15 AM 35.6 °F - 32.0 °F 87% 30.21 in 10.0 mi Calm Calm - N/A   Clear
5:35 AM 35.6 °F - 32.0 °F 87% 30.21 in 10.0 mi Calm Calm - N/A   Clear
5:55 AM 32.0 °F - 32.0 °F 100% 30.21 in 9.0 mi Calm Calm - N/A   Clear
6:15 AM 32.0 °F 28.7 °F 30.2 °F 93% 30.21 in 7.0 mi ENE 3.5 mph - N/A   Clear
6:35 AM 33.8 °F - 32.0 °F 93% 30.22 in 5.0 mi Calm Calm - N/A   Clear
6:55 AM 35.6 °F - 32.0 °F 87% 30.22 in 9.0 mi Calm Calm - N/A   Clear
7:15 AM 32.0 °F - 30.2 °F 93% 30.22 in 4.0 mi Calm Calm - N/A   Clear
7:35 AM 37.4 °F - 35.6 °F 93% 30.22 in 5.0 mi Calm Calm - N/A   Clear
7:55 AM 37.4 °F 34.9 °F 35.6 °F 93% 30.22 in 9.0 mi SSE 3.5 mph - N/A   Clear
8:15 AM 41.0 °F - 37.4 °F 87% 30.22 in 9.0 mi Calm Calm - N/A   Clear
8:35 AM 46.4 °F 43.5 °F 39.2 °F 76% 30.23 in 10.0 mi South 5.8 mph - N/A   Clear
8:55 AM 48.2 °F - 41.0 °F 76% 30.23 in 9.0 mi SSE 8.1 mph - N/A   Clear
9:15 AM 50.0 °F - 42.8 °F 76% 30.22 in 9.0 mi South 9.2 mph - N/A   Clear
9:55 AM 55.4 °F - 44.6 °F 67% 30.22 in 10.0 mi South 9.2 mph - N/A   Clear
10:35 AM 59.0 °F - 44.6 °F 59% 30.21 in 10.0 mi South 16.1 mph 20.7 mph N/A   Clear
10:55 AM 59.0 °F - 44.6 °F 59% 30.21 in 10.0 mi South 15.0 mph - N/A   Clear
11:15 AM 59.0 °F - 44.6 °F 59% 30.20 in 10.0 mi South 12.7 mph - N/A   Clear
11:35 AM 62.6 °F - 44.6 °F 52% 30.20 in 10.0 mi South 10.4 mph - N/A   Clear
11:55 AM 62.6 °F - 46.4 °F 55% 30.18 in 10.0 mi SSW 16.1 mph 20.7 mph N/A   Clear
12:15 PM 64.4 °F - 46.4 °F 52% 30.17 in 10.0 mi SSW 13.8 mph 20.7 mph N/A   Clear
12:35 PM 64.4 °F - 46.4 °F 52% 30.16 in 10.0 mi SSW 13.8 mph - N/A   Clear
12:55 PM 64.4 °F - 46.4 °F 52% 30.16 in 10.0 mi South 13.8 mph 18.4 mph N/A   Clear
1:15 PM 64.4 °F - 48.2 °F 56% 30.13 in 10.0 mi South 15.0 mph 21.9 mph N/A   Clear
1:55 PM 66.2 °F - 48.2 °F 52% 30.12 in 10.0 mi South 12.7 mph 20.7 mph N/A   Clear
2:15 PM 66.2 °F - 50.0 °F 56% 30.11 in 10.0 mi South 15.0 mph 19.6 mph N/A   Clear
2:35 PM 68.0 °F - 48.2 °F 49% 30.10 in 10.0 mi SSW 11.5 mph - N/A   Clear
2:55 PM 68.0 °F - 48.2 °F 49% 30.09 in 10.0 mi South 15.0 mph 20.7 mph N/A   Clear
3:15 PM 69.8 °F - 50.0 °F 49% 30.09 in 10.0 mi South 10.4 mph 20.7 mph N/A   Clear
3:35 PM 69.8 °F - 50.0 °F 49% 30.08 in 10.0 mi South 16.1 mph - N/A   Clear
3:55 PM 69.8 °F - 50.0 °F 49% 30.08 in 10.0 mi SSE 13.8 mph 18.4 mph N/A   Clear
4:15 PM 68.0 °F - 50.0 °F 52% 30.09 in 10.0 mi South 15.0 mph 19.6 mph N/A   Partly Cloudy
4:35 PM 68.0 °F - 50.0 °F 52% 30.09 in 10.0 mi South 12.7 mph - N/A   Scattered Clouds
4:55 PM 68.0 °F - 50.0 °F 52% 30.09 in 10.0 mi South 13.8 mph - N/A   Partly Cloudy
5:15 PM 66.2 °F - 50.0 °F 56% 30.09 in 10.0 mi South 9.2 mph - N/A   Clear
5:35 PM 66.2 °F - 50.0 °F 56% 30.09 in 10.0 mi South 8.1 mph - N/A   Clear
5:55 PM 64.4 °F - 50.0 °F 59% 30.10 in 10.0 mi South 10.4 mph - N/A   Partly Cloudy
6:15 PM 64.4 °F - 50.0 °F 59% 30.10 in 10.0 mi SSE 9.2 mph - N/A   Partly Cloudy
6:35 PM 62.6 °F - 50.0 °F 63% 30.10 in 10.0 mi SSE 10.4 mph - N/A   Partly Cloudy
6:55 PM 62.6 °F - 50.0 °F 63% 30.11 in 10.0 mi SSE 10.4 mph - N/A   Partly Cloudy
7:15 PM 60.8 °F - 50.0 °F 68% 30.12 in 10.0 mi South 9.2 mph - N/A   Scattered Clouds
7:35 PM 60.8 °F - 50.0 °F 68% 30.12 in 10.0 mi South 8.1 mph - N/A   Scattered Clouds
7:55 PM 59.0 °F - 50.0 °F 72% 30.13 in 10.0 mi South 8.1 mph - N/A   Scattered Clouds
8:15 PM 59.0 °F - 50.0 °F 72% 30.13 in 10.0 mi South 8.1 mph - N/A   Scattered Clouds
8:35 PM 59.0 °F - 50.0 °F 72% 30.12 in 10.0 mi South 8.1 mph - N/A   Partly Cloudy
8:55 PM 59.0 °F - 50.0 °F 72% 30.13 in 10.0 mi South 6.9 mph - N/A   Clear
9:15 PM 57.2 °F - 50.0 °F 77% 30.13 in 10.0 mi SSE 5.8 mph - N/A   Clear
9:35 PM 57.2 °F - 50.0 °F 77% 30.13 in 10.0 mi SSE 4.6 mph - N/A   Clear
9:55 PM 55.4 °F - 50.0 °F 82% 30.14 in 10.0 mi SSE 4.6 mph - N/A   Clear
10:15 PM 55.4 °F - 50.0 °F 82% 30.14 in 10.0 mi SSE 5.8 mph - N/A   Clear
10:35 PM 55.4 °F - 50.0 °F 82% 30.14 in 10.0 mi SE 4.6 mph - N/A   Clear
10:55 PM 53.6 °F - 50.0 °F 88% 30.14 in 10.0 mi Calm Calm - N/A   Clear
11:15 PM 53.6 °F - 50.0 °F 88% 30.14 in 10.0 mi South 3.5 mph - N/A   Clear
11:35 PM 53.6 °F - 48.2 °F 82% 30.15 in 10.0 mi SSE 3.5 mph - N/A   Clear
11:55 PM 53.6 °F - 50.0 °F 88% 30.15 in 10.0 mi Calm Calm - N/A   Clear